Regional Weather Roundup
Issued by NWS

Home | Current Version | Previous Version | Text Only | Print | Product List | Glossary On
Versions: 1 2 3 4 5 6 7 8 9 10 11 12 13 14 15 16 17 18 19 20 21 22 23 24 25 26 27 28 29 30 31 32 33 34 35 36 37 38 39 40 41 42 43 44 45 46 47 48 49 50
325
ASUS44 KFWD 060315
RWRTX
NORTH TEXAS HOURLY WEATHER ROUNDUP
NATIONAL WEATHER SERVICE FORT WORTH TX
1000 PM CDT THU MAY 05 2016

NOTE: "FAIR" INDICATES FEW OR NO CLOUDS BELOW 12,000 FEET WITH NO
SIGNIFICANT WEATHER AND/OR OBSTRUCTIONS TO VISIBILITY.

TXZ118-119-060400-
DALLAS/FORT WORTH METROPLEX

CITY           SKY/WX    TMP DP  RH WIND       PRES   REMARKS
DFW AIRPORT    PTCLDY    73  46  38 N5        30.02R
DALLAS LOVE    PTCLDY    68  50  52 E6        30.02R
FTW MEACHAM    CLEAR     70  48  45 NE3       30.03R
DAL-EXECUTIVE  CLEAR     65  46  50 CALM      30.03R
FTW-ALLIANCE   PTCLDY    60  53  77 CALM      30.03R
FTW-NAS-JRB    CLEAR     73  48  41 CALM      30.03R
FTW-SPINKS     CLEAR     61  55  81 CALM      30.05R
ARLINGTON      CLEAR     63  53  70 CALM      30.03R
GRAND PRAIRIE  CLEAR     74  43  33 CALM      30.04R
ADDISON        CLEAR     75  48  38 NW3       30.00F
MESQUITE       CLEAR     68  49  49 CALM      30.03R
LANCASTER      CLEAR     65  48  53 N3        30.03R
$$

TXZ091>094-102>105-117-120-121-131>134-060400-
NORTH CENTRAL TEXAS

CITY           SKY/WX    TMP DP  RH WIND       PRES   REMARKS
SHRMAN/DENISON CLEAR     65  45  47 CALM      30.05R
GAINESVILLE    CLEAR     62  52  68 CALM      30.07R
BOWIE          CLEAR     60  55  84 CALM      30.05R
BRIDGEPORT     CLEAR     59  55  87 CALM      30.06R
DECATUR        CLEAR     68  49  51 CALM      30.05R
DENTON         CLEAR     64  53  67 NW3       30.03R
MCKINNEY       CLEAR     64  53  67 CALM      30.03R
GREENVILLE     CLEAR     61  55  82 CALM      30.03R
ROCKWALL       CLEAR     65  53  65 E3        30.02R
TERRELL        CLEAR     64  53  67 CALM      30.03R
WAXAHACHIE     CLOUDY    65  49  55 CALM      30.05R
CLEBURNE       PTCLDY    70  52  52 CALM      30.05R
GRANBURY       CLEAR     64  54  69 CALM      30.05R
$$

TXZ083>090-098>101-113>116-127>130-139>142-154-155-060400-
WESTERN NORTH TEXAS

CITY           SKY/WX    TMP DP  RH WIND       PRES   REMARKS
WICHITA FALLS  CLEAR     66  49  54 SE5       30.04R
WF-KICKAPOO    CLEAR     67  52  58 SE5       30.05R
ABILENE        CLEAR     68  56  65 SE9       30.06
ABILENE-DYESS  PTCLDY    66  57  72 S7        30.05R
BRECKENRIDGE   CLEAR     71  53  52 SE8       30.05R
GRAHAM         CLEAR     65  54  68 E5        30.03R
MINERAL WELLS  CLEAR     66  51  58 E5        30.03R
STEPHENVILLE   CLEAR     70  53  55 CALM      30.08R
COMANCHE       CLOUDY    71  57  62 CALM      30.07R
BROWNWOOD      CLOUDY    66  57  72 E3        30.06R
COLEMAN        CLOUDY    69  55  60 CALM      30.07R
$$

TXZ143>147-156>162-174-175-060400-
CENTRAL TEXAS

CITY           SKY/WX    TMP DP  RH WIND       PRES   REMARKS
WACO           PTCLDY    63  54  72 N3        30.03R
WACO-TSTC      CLEAR     63  55  77 CALM      30.03R
WACO-MCGREGOR  CLOUDY    65  58  78 CALM      30.03R
HILLSBORO      CLOUDY    67  46  45 NE7       30.03R
CORSICANA      CLEAR     67  55  65 CALM      30.04R
HEARNE         CLOUDY    64  56  77 CALM      30.03R
TEMPLE         PTCLDY    66  58  75 N3        30.04R
KILLEEN        CLOUDY    70  55  59 CALM      30.04R
KILLEEN-SKYLRK PTCLDY    67  59  75 CALM      30.04R
FORT HOOD      CLOUDY    73  53  49 NE3       30.03R
GATESVILLE     PTCLDY    70  57  64 MISG      30.06R
HAMILTON       CLOUDY    71  54  54 E5        30.07R
LAMPASAS       CLOUDY    65  58  78 CALM      30.05R
$$

TXZ095>097-106>112-122>126-135>138-148>153-164>167-060400-
EAST TEXAS

CITY           SKY/WX    TMP DP  RH WIND       PRES   REMARKS
PARIS          CLEAR     63  45  51 N8        30.03R
SULPHUR SPRNGS CLEAR     66  55  68 CALM      30.05R
MOUNT PLEASANT CLEAR     65  52  61 CALM      30.03R
GILMER         CLEAR     61  53  73 CALM      30.01R
MINEOLA        CLEAR     63  55  77 CALM      30.03R
TYLER          CLEAR     64  50  60 CALM      30.02R
LONGVIEW       CLEAR     63  52  67 CALM      30.00R
MARSHALL       CLEAR     57  53  84 CALM      30.03R
PALESTINE      PTCLDY    60  55  83 CALM      30.03R
JACKSONVILLE   CLEAR     69  46  42 CALM      30.04R
HENDERSON      CLEAR     60  53  76 CALM      30.03R
NACOGDOCHES    CLEAR     57  54  88 N3        30.01R
LUFKIN         CLEAR     60  55  83 CALM      30.01R
$$

SUPPLEMENTAL OBSERVATIONS (CENTRAL)

CITY           SKY/WX    TMP DP  RH WIND       PRES   REMARKS
LAKE TEXOMA      N/A     70  50  49 CALM        N/A
CADDO GRASSLND   N/A     57  54  88 CALM        N/A
PAT MAYSE LAKE   N/A     64  52  63 N2          N/A
GREENVILLE       N/A     66  50  55 NW3         N/A
CEDAR HILL       N/A     61  48  63 CALM        N/A
ATHENS           N/A     63  55  77 CALM        N/A
LAKE LIMESTONE   N/A     64  57  77 NE2         N/A
MCGREGOR         N/A     63  57  82 CALM        N/A
TEMPLE           N/A     72  52  49 N5          N/A
$$

SUPPLEMENTAL OBSERVATIONS (WEST)

CITY           SKY/WX    TMP DP  RH WIND       PRES   REMARKS
POSSUM KINGDOM   N/A     70  52  52 E5          N/A
LBJ GRASSLAND    N/A     66  48  52 NE2         N/A
GRANBURY         N/A     64  52  63 CALM        N/A
COMANCHE         N/A     72  55  56 S5          N/A
HAMBY            N/A     64  54  68 SE5         N/A
IVIE RESERVOIR   N/A     70  52  52 S5          N/A
COLORADO BEND    N/A     70  52  52 CALM        N/A
$$

SUPPLEMENTAL OBSERVATIONS (EAST)

CITY           SKY/WX    TMP DP  RH WIND       PRES   REMARKS
CLARKSVILLE      N/A     66  45  45 N2          N/A
CADDO LAKE       N/A     54  48  82 CALM        N/A
GILMER           N/A     61  52  72 CALM        N/A
HENDERSON        N/A     59  54  82 CALM        N/A
LUFKIN           N/A     61  57  88 MISG        N/A
N SABINE NF      N/A     59  52  77 MISG        N/A
S SABINE NF      N/A     57  54  88 CALM        N/A
$$

SUPPLEMENTAL OBSERVATIONS ARE A COLLECTION OF AUTOMATED INSTRUMENTS
THAT ARE MAINTAINED BY A VARIETY OF FEDERAL AND STATE AGENCIES.
CERTAIN ELEMENTS...SUCH AS HUMIDITY VALUES AND SUSTAINED WIND
SPEEDS...MAY BE APPROXIMATED.





USA.gov is the U.S. government's official web portal to all federal, state and local government web resources and services.